CW3768 Weather Reports


Display with metric or nautical units.
time (UTC)temp
F
wind
direction
speed
MPH
gust
MPH
rain 1hr
in
rain 24hr
in
rain mn
in
humidity
%
barometer
mb
20260906194554 76 233 5.0 12.0 0.00 0.00 0.00 64 1020.6
20260906193053 78 237 2.0 9.0 0.00 0.00 0.00 63 1020.9
20260906191555 78 238 2.0 10.0 0.00 0.00 0.00 63 1020.8
20260906190055 78 222 2.0 9.0 0.00 0.00 0.00 54 1020.9
20260906184555 78 191 2.0 9.0 0.00 0.00 0.00 54 1021.0
20260906183047 78 222 4.0 9.0 0.00 0.00 0.00 51 1021.0
20260906181600 78 220 4.0 11.0 0.00 0.00 0.00 51 1021.0
20260906180056 77 212 4.0 10.0 0.00 0.00 0.00 54 1021.1
20260906174552 77 239 1.0 10.0 0.00 0.00 0.00 55 1021.0
20260906173052 77 230 4.0 8.0 0.00 0.00 0.00 53 1021.0
20260906171559 77 238 1.0 8.0 0.00 0.00 0.00 56 1021.1
20260906170053 76 0 2.0 9.0 0.00 0.00 0.00 62 1021.2
20260906164549 76 213 4.0 7.0 0.00 0.00 0.00 59 1021.3
20260906163059 75 190 1.0 8.0 0.00 0.00 0.00 62 1021.4
20260906161556 74 187 3.0 7.0 0.00 0.00 0.00 65 1021.7
20260906160053 74 0 1.0 5.0 0.00 0.00 0.00 62 1021.7
20260906154555 74 200 1.0 5.0 0.00 0.00 0.00 69 1021.8
20260906153045 73 192 1.0 5.0 0.00 0.00 0.00 72 1021.8
20260906151602 73 191 0.0 6.0 0.00 0.00 0.00 72 1021.7
20260906150059 72 149 2.0 5.0 0.00 0.00 0.00 73 1021.7
20260906144604 72 0 0.0 3.0 0.00 0.00 0.00 74 1021.7
20260906143108 71 0 0.0 2.0 0.00 0.00 0.00 74 1021.6
20260906141554 71 0 0.0 0.0 0.00 0.00 0.00 68 1021.5
20260906140047 68 0 0.0 0.0 0.00 0.00 0.00 75 1021.7
20260906134555 65 0 0.0 1.0 0.00 0.00 0.00 86 1021.5
20260906133101 61 0 0.0 2.0 0.00 0.00 0.00 97 1021.4
20260906131557 58 0 0.0 4.0 0.00 0.00 0.00 100 1021.5
20260906130048 54 35 2.0 4.0 0.00 0.00 0.00 100 1021.5
20260906124555 51 35 1.0 4.0 0.00 0.00 0.00 100 1021.4
20260906123054 48 35 2.0 5.0 0.00 0.00 0.00 100 1021.3
20260906121548 47 35 2.0 4.0 0.00 0.00 0.00 99 1021.4
20260906120045 46 35 2.0 4.0 0.00 0.00 0.00 99 1021.3
20260906114556 46 35 2.0 3.0 0.00 0.00 0.00 99 1021.0
20260906113053 46 35 1.0 4.0 0.00 0.00 0.00 98 1020.9
20260906111549 46 35 2.0 3.0 0.00 0.00 0.00 98 1020.9
20260906110053 46 35 0.0 3.0 0.00 0.00 0.00 98 1020.7
20260906104550 47 0 0.0 3.0 0.00 0.00 0.00 98 1020.8
20260906103057 47 35 1.0 4.0 0.00 0.00 0.00 98 1020.7
20260906101543 47 35 2.0 3.0 0.00 0.00 0.00 98 1020.7
20260906100052 47 0 0.0 4.0 0.00 0.00 0.00 98 1020.8
20260906094559 48 35 3.0 4.0 0.00 0.00 0.00 98 1020.7
20260906093113 48 35 3.0 4.0 0.00 0.00 0.00 98 1020.7
20260906091557 48 35 1.0 4.0 0.00 0.00 0.00 98 1020.7
20260906090058 49 35 2.0 5.0 0.00 0.00 0.00 98 1020.6
20260906084551 49 35 2.0 5.0 0.00 0.00 0.00 97 1020.5
20260906083056 49 35 2.0 4.0 0.00 0.00 0.00 97 1020.6
20260906081555 49 35 2.0 5.0 0.00 0.00 0.00 97 1020.4
20260906080055 49 35 2.0 5.0 0.00 0.00 0.00 97 1020.2
20260906074550 49 35 3.0 5.0 0.00 0.00 0.00 97 1020.1
20260906073057 49 35 2.0 4.0 0.00 0.00 0.00 97 1020.0
20260906071606 50 36 1.0 3.0 0.00 0.00 0.00 97 1020.0
20260906070050 50 35 1.0 4.0 0.00 0.00 0.00 96 1020.0
20260906064555 51 35 2.0 4.0 0.00 0.00 0.00 96 1019.7
20260906063055 51 35 1.0 3.0 0.00 0.00 0.00 96 1019.8
20260906061554 51 35 2.0 4.0 0.00 0.00 0.00 96 1019.8
20260906060101 52 35 1.0 4.0 0.00 0.00 0.00 96 1019.6
20260906054558 52 35 2.0 4.0 0.00 0.00 0.00 96 1019.7
20260906053051 53 35 0.0 3.0 0.00 0.00 0.00 96 1019.5
20260906051558 53 35 2.0 5.0 0.00 0.00 0.00 96 1019.5
20260906050116 54 36 2.0 5.0 0.00 0.00 0.00 96 1019.4
20260906044555 54 36 2.0 5.0 0.00 0.00 0.00 95 1019.4
20260906043059 54 36 3.0 5.0 0.00 0.00 0.00 95 1019.2
20260906041554 55 36 2.0 4.0 0.00 0.00 0.00 95 1019.1
20260906040058 55 37 2.0 6.0 0.00 0.00 0.00 94 1019.1
20260906034554 56 270 2.0 4.0 0.00 0.00 0.00 94 1019.1
20260906033048 56 0 1.0 2.0 0.00 0.00 0.00 94 1019.1
20260906031555 57 0 0.0 1.0 0.00 0.00 0.00 94 1018.8
20260906030112 58 0 0.0 3.0 0.00 0.00 0.00 94 1018.7
20260906024550 58 270 2.0 6.0 0.00 0.00 0.00 93 1018.7
20260906023053 59 270 3.0 6.0 0.00 0.00 0.00 92 1018.7
20260906021608 59 270 0.0 3.0 0.00 0.00 0.00 92 1018.7
20260906020053 60 270 0.0 6.0 0.00 0.00 0.00 92 1018.5
20260906014546 61 270 3.0 6.0 0.00 0.00 0.00 92 1018.6
20260906013053 62 270 2.0 6.0 0.00 0.00 0.00 91 1018.4
20260906011553 62 269 3.0 6.0 0.00 0.00 0.00 90 1018.3
20260906010051 64 0 1.0 3.0 0.00 0.00 0.00 88 1018.2
20260906004558 65 0 0.0 1.0 0.00 0.00 0.00 87 1018.2
20260906003106 66 0 0.0 1.0 0.00 0.00 0.00 85 1018.2
20260906001554 67 0 0.0 0.0 0.00 0.00 0.00 82 1018.2
20260906000050 69 0 0.0 0.0 0.00 0.00 0.00 79 1018.1
20260905234554 71 0 0.0 0.0 0.00 0.00 0.00 77 1018.2
20260905233054 72 0 0.0 1.0 0.00 0.00 0.00 74 1018.1
20260905231554 73 0 0.0 5.0 0.00 0.00 0.00 68 1018.2
20260905230053 74 232 2.0 6.0 0.00 0.00 0.00 64 1018.2
20260905224555 74 233 1.0 5.0 0.00 0.00 0.00 65 1018.0
20260905223054 74 208 0.0 8.0 0.00 0.00 0.00 64 1018.0
20260905221554 76 0 2.0 8.0 0.00 0.00 0.00 65 1017.8
20260905220100 77 229 1.0 7.0 0.00 0.00 0.00 64 1017.7
20260905214606 78 0 0.0 10.0 0.00 0.00 0.00 62 1017.4
20260905213114 79 229 1.0 5.0 0.00 0.00 0.00 56 1017.4
20260905211600 78 213 1.0 7.0 0.00 0.00 0.00 58 1017.3
20260905210052 79 0 1.0 9.0 0.00 0.00 0.00 56 1017.3
20260905204550 79 207 3.0 11.0 0.00 0.00 0.00 53 1017.5
20260905203056 79 214 2.0 10.0 0.00 0.00 0.00 57 1017.3
20260905201558 79 206 1.0 7.0 0.00 0.00 0.00 55 1017.4
20260905200057 78 197 1.0 7.0 0.00 0.00 0.00 56 1017.7